,,PA_Meas_PMT16A,,PR_Meas_QMR101_102,,RH_Meas_QMH101,,SR_Meas_QMS101,,TA_Meas_QMH101,,GenWind,,GenWind,
time,status,PA,status,PR,status,RH,status,SR,status,TA,status,DirAvg,status,SpdAvg,
2011-09-27, 00:00:05,VALID,919.098,VALID,0,VALID,97.7856,VALID,0,VALID,19.0608,VALID,6,VALID,0.0199219,
2011-09-27, 00:01:05,VALID,919.071,VALID,0,VALID,97.7779,VALID,0,VALID,19.0593,VALID,6,VALID,0.527344,
2011-09-27, 00:02:05,VALID,919.061,VALID,0,VALID,97.7779,VALID,0,VALID,19.0593,VALID,6,VALID,0.778906,
2011-09-27, 00:03:05,VALID,919.067,VALID,0.2,VALID,97.7703,VALID,0,VALID,19.0788,VALID,6,VALID,0.271484,
2011-09-27, 00:04:05,VALID,919.088,VALID,0,VALID,97.7627,VALID,0,VALID,19.0788,VALID,6,VALID,0.608984,
2011-09-27, 00:05:05,VALID,919.071,VALID,0,VALID,97.7932,VALID,0,VALID,19.0788,VALID,6,VALID,0.480469,
2011-09-27, 00:06:05,VALID,919.058,VALID,0.2,VALID,97.7703,VALID,0,VALID,19.0983,VALID,6,VALID,0.242578,
2011-09-27, 00:07:05,VALID,919.081,VALID,0,VALID,97.7856,VALID,0,VALID,19.1178,VALID,6,VALID,0.130469,
2011-09-27, 00:08:05,VALID,919.098,VALID,0,VALID,97.7627,VALID,0,VALID,19.1388,VALID,306,VALID,0.800781,
2011-09-27, 00:09:05,VALID,919.095,VALID,0.2,VALID,97.7779,VALID,0,VALID,19.0983,VALID,249,VALID,0.648047,
2011-09-27, 00:10:05,VALID,919.146,VALID,0,VALID,97.7703,VALID,0,VALID,19.1193,VALID,249,VALID,0.855469,
2011-09-27, 00:11:05,VALID,919.116,VALID,0,VALID,97.7703,VALID,0,VALID,19.1193,VALID,249,VALID,0.912109,
2011-09-27, 00:12:05,VALID,919.142,VALID,0.2,VALID,97.7703,VALID,0,VALID,19.0998,VALID,249,VALID,0.751172,
2011-09-27, 00:13:05,VALID,919.15,VALID,0.2,VALID,97.7779,VALID,0,VALID,19.0593,VALID,222,VALID,1.55,
2011-09-27, 00:14:05,VALID,919.196,VALID,0,VALID,97.7856,VALID,0,VALID,19.0608,VALID,260,VALID,1.77539,
2011-09-27, 00:15:05,VALID,919.195,VALID,0.2,VALID,97.7703,VALID,0,VALID,19.0203,VALID,259,VALID,1.66758,
2011-09-27, 00:16:05,VALID,919.119,VALID,0,VALID,97.7932,VALID,0,VALID,19.0008,VALID,259,VALID,1.03437,
2011-09-27, 00:17:05,VALID,919.115,VALID,0.2,VALID,97.7856,VALID,0,VALID,19.0218,VALID,260,VALID,1.2043,
2011-09-27, 00:18:05,VALID,919.078,VALID,0,VALID,97.7627,VALID,0,VALID,19.0413,VALID,260,VALID,1.08633,
2011-09-27, 00:19:05,VALID,919.027,VALID,0.2,VALID,97.7856,VALID,0,VALID,18.9814,VALID,260,VALID,0.912891,
2011-09-27, 00:20:05,VALID,919.005,VALID,0,VALID,97.7779,VALID,0,VALID,18.9828,VALID,232,VALID,0.869141,
2011-09-27, 00:21:05,VALID,918.969,VALID,0.2,VALID,97.7779,VALID,0,VALID,18.9814,VALID,235,VALID,0.00585938,
2011-09-27, 00:22:05,VALID,918.95,VALID,0,VALID,97.7856,VALID,0,VALID,19.0218,VALID,235,VALID,0.149609,
2011-09-27, 00:23:05,VALID,918.953,VALID,0.2,VALID,97.7932,VALID,0,VALID,18.9814,VALID,235,VALID,1.04883,
2011-09-27, 00:24:05,VALID,918.943,VALID,0,VALID,97.8084,VALID,0,VALID,18.9619,VALID,345,VALID,0.622266,
2011-09-27, 00:25:05,VALID,918.971,VALID,0,VALID,97.8084,VALID,0,VALID,18.9828,VALID,345,VALID,0.748438,
2011-09-27, 00:26:05,VALID,918.977,VALID,0.2,VALID,97.7932,VALID,0,VALID,19.0023,VALID,359,VALID,1.36602,
2011-09-27, 00:27:05,VALID,918.981,VALID,0,VALID,97.8008,VALID,0,VALID,18.9619,VALID,20,VALID,0.929688,
2011-09-27, 00:28:05,VALID,918.972,VALID,0,VALID,97.816,VALID,0,VALID,19.0008,VALID,40,VALID,0.893359,
2011-09-27, 00:29:05,VALID,918.915,VALID,0.2,VALID,97.8008,VALID,0,VALID,19.0413,VALID,40,VALID,0.957422,
2011-09-27, 00:30:05,VALID,918.914,VALID,0,VALID,97.7932,VALID,0,VALID,19.0218,VALID,3,VALID,1.0918,
2011-09-27, 00:31:05,VALID,918.914,VALID,0.2,VALID,97.8008,VALID,0,VALID,19.0008,VALID,351,VALID,1.27148,
2011-09-27, 00:32:05,VALID,918.942,VALID,0,VALID,97.7779,VALID,0,VALID,19.0203,VALID,16,VALID,1.19141,
2011-09-27, 00:33:05,VALID,918.921,VALID,0,VALID,97.7932,VALID,0,VALID,19.0593,VALID,8,VALID,1.29609,
2011-09-27, 00:34:05,VALID,918.885,VALID,0.2,VALID,97.7932,VALID,0,VALID,19.0189,VALID,19,VALID,1.44336,
2011-09-27, 00:35:05,VALID,918.813,VALID,0,VALID,97.8084,VALID,0,VALID,19.0189,VALID,18,VALID,1.94453,
2011-09-27, 00:36:05,VALID,918.791,VALID,0,VALID,97.8008,VALID,0.107441,VALID,19.0398,VALID,14,VALID,1.69648,
2011-09-27, 00:37:05,VALID,918.773,VALID,0,VALID,97.816,VALID,0.107441,VALID,19.0203,VALID,344,VALID,0.713672,
2011-09-27, 00:38:05,VALID,918.777,VALID,0.2,VALID,97.7932,VALID,0.107441,VALID,18.998,VALID,344,VALID,0,
2011-09-27, 00:39:05,VALID,918.764,VALID,0,VALID,97.7932,VALID,0,VALID,18.9994,VALID,344,VALID,0,
2011-09-27, 00:40:05,VALID,918.711,VALID,0,VALID,97.816,VALID,0.107441,VALID,19.0189,VALID,344,VALID,0.319922,
2011-09-27, 00:41:05,VALID,918.721,VALID,0,VALID,97.7932,VALID,0.107441,VALID,19.0189,VALID,344,VALID,0.15,
2011-09-27, 00:42:05,VALID,918.708,VALID,0.2,VALID,97.816,VALID,0,VALID,19.0203,VALID,344,VALID,0.616406,
2011-09-27, 00:43:05,VALID,918.691,VALID,0,VALID,97.8237,VALID,0,VALID,19.0398,VALID,344,VALID,1.02969,
2011-09-27, 00:44:05,VALID,918.661,VALID,0,VALID,97.8008,VALID,0.107441,VALID,19.0203,VALID,14,VALID,1.26563,
2011-09-27, 00:45:05,VALID,918.593,VALID,0,VALID,97.8084,VALID,0,VALID,18.9994,VALID,12,VALID,1.36641,
2011-09-27, 00:46:05,VALID,918.572,VALID,0.2,VALID,97.8084,VALID,0,VALID,19.0203,VALID,10,VALID,1.59297,
2011-09-27, 00:47:05,VALID,918.564,VALID,0,VALID,97.8313,VALID,0,VALID,19.0203,VALID,46,VALID,1.18555,
2011-09-27, 00:48:05,VALID,918.554,VALID,0,VALID,97.8389,VALID,0,VALID,19.0189,VALID,47,VALID,0.607813,
2011-09-27, 00:49:05,VALID,918.572,VALID,0.2,VALID,97.8237,VALID,0,VALID,19.0398,VALID,47,VALID,0.275781,
2011-09-27, 00:50:05,VALID,918.576,VALID,0,VALID,97.816,VALID,0,VALID,19.0398,VALID,21,VALID,0.799219,
2011-09-27, 00:51:05,VALID,918.569,VALID,0,VALID,97.8389,VALID,0,VALID,19.0398,VALID,21,VALID,0.773828,
2011-09-27, 00:52:05,VALID,918.551,VALID,0,VALID,97.8313,VALID,0,VALID,19.0398,VALID,21,VALID,0.973437,
2011-09-27, 00:53:05,VALID,918.547,VALID,0.2,VALID,97.8313,VALID,0,VALID,19.0398,VALID,21,VALID,0.982813,
2011-09-27, 00:54:05,VALID,918.52,VALID,0,VALID,97.816,VALID,0,VALID,19.0203,VALID,28,VALID,1.49648,
2011-09-27, 00:55:05,VALID,918.498,VALID,0,VALID,97.816,VALID,0,VALID,19.0593,VALID,25,VALID,1.61172,
2011-09-27, 00:56:05,VALID,918.492,VALID,0.2,VALID,97.8237,VALID,0,VALID,19.0788,VALID,16,VALID,1.11641,
2011-09-27, 00:57:05,VALID,918.499,VALID,0,VALID,97.8389,VALID,0,VALID,19.0788,VALID,4,VALID,1.5207,
2011-09-27, 00:58:05,VALID,918.489,VALID,0,VALID,97.816,VALID,0,VALID,19.0593,VALID,19,VALID,0.782422,
2011-09-27, 00:59:05,VALID,918.482,VALID,0,VALID,97.8237,VALID,0,VALID,19.0803,VALID,9,VALID,0.926953,
2011-09-27, 01:00:05,VALID,918.464,VALID,0,VALID,97.8465,VALID,0,VALID,19.0788,VALID,7,VALID,1.39258,
2011-09-27, 01:01:05,VALID,918.41,VALID,0.2,VALID,97.8313,VALID,0,VALID,19.0384,VALID,356,VALID,0.602734,
2011-09-27, 01:02:05,VALID,918.434,VALID,0,VALID,97.8237,VALID,0,VALID,19.0998,VALID,353,VALID,1.36641,
2011-09-27, 01:03:05,VALID,918.44,VALID,0,VALID,97.8465,VALID,0,VALID,19.1193,VALID,337,VALID,0.481641,
2011-09-27, 01:04:05,VALID,918.42,VALID,0,VALID,97.8389,VALID,0,VALID,19.1178,VALID,337,VALID,0.379297,
2011-09-27, 01:05:05,VALID,918.417,VALID,0,VALID,97.8542,VALID,0,VALID,19.0983,VALID,337,VALID,0.25625,
2011-09-27, 01:06:05,VALID,918.408,VALID,0,VALID,97.8465,VALID,0,VALID,19.1178,VALID,26,VALID,0.871094,
2011-09-27, 01:07:05,VALID,918.399,VALID,0,VALID,97.8465,VALID,0,VALID,19.1178,VALID,49,VALID,0.532422,
2011-09-27, 01:08:05,VALID,918.421,VALID,0,VALID,97.8542,VALID,0,VALID,19.1178,VALID,49,VALID,0.654297,
2011-09-27, 01:09:05,VALID,918.429,VALID,0.2,VALID,97.8542,VALID,0,VALID,19.1583,VALID,33,VALID,0.96875,
2011-09-27, 01:10:05,VALID,918.423,VALID,0,VALID,97.8465,VALID,0,VALID,19.1164,VALID,32,VALID,1.30039,
2011-09-27, 01:11:05,VALID,918.409,VALID,0,VALID,97.8389,VALID,0,VALID,19.2182,VALID,9,VALID,1.48711,
2011-09-27, 01:12:05,VALID,918.408,VALID,0,VALID,97.8389,VALID,0,VALID,19.1958,VALID,353,VALID,0.937891,
2011-09-27, 01:13:05,VALID,918.357,VALID,0,VALID,97.8542,VALID,0,VALID,19.1763,VALID,7,VALID,1.30273,
2011-09-27, 01:14:05,VALID,918.379,VALID,0,VALID,97.8389,VALID,0,VALID,19.1749,VALID,11,VALID,0.705859,
2011-09-27, 01:15:05,VALID,918.37,VALID,0,VALID,97.8542,VALID,0,VALID,19.1749,VALID,11,VALID,0.429297,
2011-09-27, 01:16:05,VALID,918.358,VALID,0,VALID,97.8389,VALID,0.107441,VALID,19.2348,VALID,11,VALID,0.202344,
2011-09-27, 01:17:05,VALID,918.356,VALID,0,VALID,97.8313,VALID,0,VALID,19.1929,VALID,11,VALID,0.246875,
2011-09-27, 01:18:05,VALID,918.32,VALID,0,VALID,97.8542,VALID,0,VALID,19.2319,VALID,294,VALID,1.70703,
2011-09-27, 01:19:05,VALID,918.325,VALID,0,VALID,97.8389,VALID,0,VALID,19.2709,VALID,326,VALID,1.32773,
2011-09-27, 01:20:05,VALID,918.254,VALID,0,VALID,97.8313,VALID,0,VALID,19.3128,VALID,335,VALID,0.976953,
2011-09-27, 01:21:05,VALID,918.247,VALID,0,VALID,97.8389,VALID,0,VALID,19.2918,VALID,35,VALID,1.46523,
2011-09-27, 01:22:05,VALID,918.262,VALID,0,VALID,97.8389,VALID,0,VALID,19.3128,VALID,35,VALID,0.457812,
2011-09-27, 01:23:05,VALID,918.254,VALID,0,VALID,97.8313,VALID,0,VALID,19.2933,VALID,35,VALID,0.296875,
2011-09-27, 01:24:05,VALID,918.245,VALID,0,VALID,97.8389,VALID,0,VALID,19.2933,VALID,35,VALID,0.299609,
2011-09-27, 01:25:05,VALID,918.191,VALID,0,VALID,97.8465,VALID,0,VALID,19.2723,VALID,29,VALID,1.32227,
2011-09-27, 01:26:05,VALID,918.174,VALID,0,VALID,97.8389,VALID,0,VALID,19.2933,VALID,25,VALID,1.41836,
2011-09-27, 01:27:05,VALID,918.166,VALID,0,VALID,97.8465,VALID,0,VALID,19.2723,VALID,33,VALID,1.93711,
2011-09-27, 01:28:05,VALID,918.116,VALID,0,VALID,97.8313,VALID,0,VALID,19.2918,VALID,25,VALID,1.96484,
2011-09-27, 01:29:05,VALID,918.086,VALID,0,VALID,97.8313,VALID,0,VALID,19.3562,VALID,29,VALID,1.81406,
2011-09-27, 01:30:05,VALID,918.099,VALID,0,VALID,97.8618,VALID,0,VALID,19.3113,VALID,30,VALID,1.67813,
2011-09-27, 01:31:05,VALID,918.098,VALID,0,VALID,97.8389,VALID,0,VALID,19.3533,VALID,29,VALID,1.36133,
2011-09-27, 01:32:05,VALID,918.13,VALID,0,VALID,97.8542,VALID,0,VALID,19.3323,VALID,29,VALID,0.455469,
2011-09-27, 01:33:05,VALID,918.137,VALID,0,VALID,97.8542,VALID,0,VALID,19.3308,VALID,29,VALID,0.3375,
2011-09-27, 01:34:05,VALID,918.145,VALID,0,VALID,97.8694,VALID,0,VALID,19.3713,VALID,29,VALID,0.121875,
2011-09-27, 01:35:05,VALID,918.16,VALID,0,VALID,97.8313,VALID,0,VALID,19.3713,VALID,29,VALID,0.283203,
2011-09-27, 01:36:05,VALID,918.176,VALID,0,VALID,97.8465,VALID,0,VALID,19.3503,VALID,29,VALID,0.271484,
2011-09-27, 01:37:05,VALID,918.201,VALID,0,VALID,97.8313,VALID,0,VALID,19.3713,VALID,29,VALID,0.289453,
2011-09-27, 01:38:05,VALID,918.181,VALID,0,VALID,97.8313,VALID,0,VALID,19.3908,VALID,29,VALID,0.260547,
2011-09-27, 01:39:05,VALID,918.182,VALID,0,VALID,97.8313,VALID,0,VALID,19.3908,VALID,29,VALID,1.00273,
2011-09-27, 01:40:05,VALID,918.156,VALID,0,VALID,97.8313,VALID,0,VALID,19.4103,VALID,29,VALID,1.13008,
2011-09-27, 01:41:05,VALID,918.196,VALID,0,VALID,97.8313,VALID,0,VALID,19.4103,VALID,29,VALID,0.958594,
2011-09-27, 01:42:05,VALID,918.233,VALID,0,VALID,97.8465,VALID,0,VALID,19.4298,VALID,29,VALID,0.241797,
2011-09-27, 01:43:05,VALID,918.251,VALID,0,VALID,97.8618,VALID,0,VALID,19.4118,VALID,29,VALID,0.576953,
2011-09-27, 01:44:05,VALID,918.213,VALID,0,VALID,97.8465,VALID,0,VALID,19.3713,VALID,29,VALID,0.753906,
2011-09-27, 01:45:04,VALID,918.213,VALID,0,VALID,97.8389,VALID,0,VALID,19.3308,VALID,29,VALID,0.644922,
2011-09-27, 01:46:04,VALID,918.174,VALID,0,VALID,97.8465,VALID,0,VALID,19.3323,VALID,29,VALID,0.0867188,
2011-09-27, 01:47:04,VALID,918.177,VALID,0,VALID,97.8465,VALID,0,VALID,19.3518,VALID,29,VALID,0.0847656,
2011-09-27, 01:48:04,VALID,918.108,VALID,0,VALID,97.8465,VALID,0,VALID,19.3713,VALID,29,VALID,1.32969,
2011-09-27, 01:49:04,VALID,918.085,VALID,0,VALID,97.8465,VALID,0,VALID,19.3923,VALID,29,VALID,1.09297,
2011-09-27, 01:50:04,VALID,918.086,VALID,0,VALID,97.8465,VALID,0,VALID,19.3713,VALID,29,VALID,0.984766,
2011-09-27, 01:51:04,VALID,918.08,VALID,0,VALID,97.8694,VALID,0,VALID,19.3908,VALID,29,VALID,0.55,
2011-09-27, 01:52:04,VALID,918.077,VALID,0,VALID,97.8618,VALID,0,VALID,19.3893,VALID,29,VALID,0,
2011-09-27, 01:53:04,VALID,918.093,VALID,0,VALID,97.8542,VALID,0,VALID,19.3518,VALID,29,VALID,0.618359,
2011-09-27, 01:54:04,VALID,918.096,VALID,0,VALID,97.8618,VALID,0,VALID,19.3308,VALID,29,VALID,0,
2011-09-27, 01:55:04,VALID,918.036,VALID,0,VALID,97.8542,VALID,0,VALID,19.3937,VALID,28,VALID,0.900391,
2011-09-27, 01:56:04,VALID,918.035,VALID,0,VALID,97.8542,VALID,0,VALID,19.3323,VALID,29,VALID,0.440234,
2011-09-27, 01:57:04,VALID,918.069,VALID,0,VALID,97.8618,VALID,0,VALID,19.3128,VALID,28,VALID,0.403906,
2011-09-27, 01:58:04,VALID,918.05,VALID,0,VALID,97.8618,VALID,0,VALID,19.3518,VALID,29,VALID,0,
2011-09-27, 01:59:04,VALID,918.041,VALID,0,VALID,97.8618,VALID,0,VALID,19.3308,VALID,29,VALID,0.442969,
2011-09-27, 02:00:04,VALID,917.996,VALID,0,VALID,97.8542,VALID,0,VALID,19.3323,VALID,29,VALID,0.151953,
2011-09-27, 02:01:04,VALID,917.971,VALID,0,VALID,97.8389,VALID,0,VALID,19.2933,VALID,41,VALID,1.36055,
2011-09-27, 02:02:04,VALID,918.001,VALID,0,VALID,97.8694,VALID,0,VALID,19.2528,VALID,72,VALID,0.599219,
2011-09-27, 02:03:04,VALID,917.998,VALID,0,VALID,97.8618,VALID,0,VALID,19.2738,VALID,72,VALID,0.279687,
2011-09-27, 02:04:04,VALID,918.007,VALID,0,VALID,97.877,VALID,0,VALID,19.2738,VALID,72,VALID,0.726563,
2011-09-27, 02:05:04,VALID,917.952,VALID,0,VALID,97.8847,VALID,0,VALID,19.2738,VALID,62,VALID,1.16602,
2011-09-27, 02:06:04,VALID,917.999,VALID,0,VALID,97.8694,VALID,0,VALID,19.2738,VALID,337,VALID,0.750391,
2011-09-27, 02:07:04,VALID,918.06,VALID,0,VALID,97.8847,VALID,0,VALID,19.2528,VALID,337,VALID,0.915625,
2011-09-27, 02:08:04,VALID,918.063,VALID,0,VALID,97.877,VALID,0,VALID,19.2738,VALID,337,VALID,0.643359,
2011-09-27, 02:09:04,VALID,918.096,VALID,0,VALID,97.8694,VALID,0,VALID,19.2543,VALID,337,VALID,0.466016,
2011-09-27, 02:10:04,VALID,918.107,VALID,0,VALID,97.8618,VALID,0,VALID,19.2543,VALID,337,VALID,0.317187,
2011-09-27, 02:11:04,VALID,918.074,VALID,0.2,VALID,97.8847,VALID,0,VALID,19.2738,VALID,337,VALID,0.516406,
2011-09-27, 02:12:04,VALID,918.059,VALID,0,VALID,97.8923,VALID,0,VALID,19.3128,VALID,337,VALID,0.805469,
2011-09-27, 02:13:04,VALID,918.094,VALID,0,VALID,97.8923,VALID,0,VALID,19.2933,VALID,346,VALID,1.1582,
2011-09-27, 02:14:04,VALID,918.056,VALID,0,VALID,97.8999,VALID,0,VALID,19.2933,VALID,346,VALID,0.563672,
2011-09-27, 02:15:04,VALID,918.09,VALID,0,VALID,97.8847,VALID,0,VALID,19.3128,VALID,346,VALID,0.520703,
2011-09-27, 02:16:04,VALID,918.061,VALID,0,VALID,97.877,VALID,0,VALID,19.3128,VALID,347,VALID,0,
2011-09-27, 02:17:04,VALID,918.047,VALID,0,VALID,97.8694,VALID,0,VALID,19.3323,VALID,347,VALID,0.385547,
2011-09-27, 02:18:04,VALID,918.035,VALID,0,VALID,97.8847,VALID,0,VALID,19.3128,VALID,97,VALID,0.903516,
2011-09-27, 02:19:04,VALID,918.046,VALID,0,VALID,97.8694,VALID,0,VALID,19.2933,VALID,140,VALID,0.968359,
2011-09-27, 02:20:04,VALID,918.081,VALID,0,VALID,97.8923,VALID,0,VALID,19.2933,VALID,270,VALID,0.536719,
2011-09-27, 02:21:04,VALID,918.054,VALID,0,VALID,97.8923,VALID,0,VALID,19.2738,VALID,270,VALID,0.376563,
2011-09-27, 02:22:04,VALID,918.09,VALID,0,VALID,97.877,VALID,0,VALID,19.2933,VALID,270,VALID,0.270312,
2011-09-27, 02:23:04,VALID,918.02,VALID,0,VALID,97.8847,VALID,0,VALID,19.2738,VALID,57,VALID,1.15078,
2011-09-27, 02:24:04,VALID,918.067,VALID,0,VALID,97.8618,VALID,0,VALID,19.2738,VALID,57,VALID,0.815625,
2011-09-27, 02:25:04,VALID,918.004,VALID,0,VALID,97.8923,VALID,0,VALID,19.2738,VALID,58,VALID,0.627734,
2011-09-27, 02:26:04,VALID,918.017,VALID,0,VALID,97.877,VALID,0,VALID,19.2723,VALID,57,VALID,0.561719,
2011-09-27, 02:27:04,VALID,918.001,VALID,0,VALID,97.8923,VALID,0,VALID,19.2738,VALID,240,VALID,1.27383,
2011-09-27, 02:28:04,VALID,917.989,VALID,0,VALID,97.8694,VALID,0,VALID,19.3308,VALID,242,VALID,1.74102,
2011-09-27, 02:29:04,VALID,918,VALID,0,VALID,97.8542,VALID,0,VALID,19.3908,VALID,250,VALID,1.4207,
2011-09-27, 02:30:04,VALID,918.023,VALID,0,VALID,97.8389,VALID,0,VALID,19.4327,VALID,248,VALID,1.12227,
2011-09-27, 02:31:04,VALID,918.047,VALID,0,VALID,97.8465,VALID,0,VALID,19.3308,VALID,242,VALID,0.992969,
2011-09-27, 02:32:04,VALID,917.983,VALID,0,VALID,97.8389,VALID,0,VALID,19.3547,VALID,38,VALID,0.85,
2011-09-27, 02:33:04,VALID,918.029,VALID,0,VALID,97.8389,VALID,0,VALID,19.2918,VALID,38,VALID,0.591797,
2011-09-27, 02:34:04,VALID,918.04,VALID,0,VALID,97.8542,VALID,0,VALID,19.3128,VALID,38,VALID,0.225391,
2011-09-27, 02:35:04,VALID,917.991,VALID,0,VALID,97.8465,VALID,0,VALID,19.3143,VALID,38,VALID,0.959766,
2011-09-27, 02:36:04,VALID,917.969,VALID,0,VALID,97.8465,VALID,0,VALID,19.3143,VALID,38,VALID,0.236328,
2011-09-27, 02:37:04,VALID,917.981,VALID,0,VALID,97.8694,VALID,0,VALID,19.2738,VALID,109,VALID,0.917578,
2011-09-27, 02:38:04,VALID,917.871,VALID,0,VALID,97.8465,VALID,0,VALID,19.2948,VALID,31,VALID,2.27852,
2011-09-27, 02:39:04,VALID,917.91,VALID,0,VALID,97.8465,VALID,0,VALID,19.2738,VALID,153,VALID,1.44258,
2011-09-27, 02:40:04,VALID,917.891,VALID,0,VALID,97.8542,VALID,0,VALID,19.2543,VALID,120,VALID,1.05508,
2011-09-27, 02:41:04,VALID,917.92,VALID,0,VALID,97.877,VALID,0,VALID,19.2543,VALID,55,VALID,1.0707,
2011-09-27, 02:42:04,VALID,917.908,VALID,0,VALID,97.877,VALID,0,VALID,19.2543,VALID,236,VALID,1.27422,
2011-09-27, 02:43:04,VALID,917.916,VALID,0,VALID,97.877,VALID,0,VALID,19.2543,VALID,258,VALID,1.15703,
2011-09-27, 02:44:04,VALID,917.816,VALID,0,VALID,97.8694,VALID,0,VALID,19.2738,VALID,321,VALID,2.06875,
2011-09-27, 02:45:04,VALID,917.888,VALID,0,VALID,97.8694,VALID,0,VALID,19.2933,VALID,227,VALID,0.866797,
2011-09-27, 02:46:04,VALID,917.868,VALID,0,VALID,97.8542,VALID,0,VALID,19.3338,VALID,246,VALID,0.601563,
2011-09-27, 02:47:04,VALID,917.904,VALID,0,VALID,97.8694,VALID,0,VALID,19.3143,VALID,246,VALID,0.555078,
2011-09-27, 02:48:04,VALID,917.925,VALID,0,VALID,97.8542,VALID,0,VALID,19.2723,VALID,205,VALID,1.05781,
2011-09-27, 02:49:04,VALID,917.85,VALID,0,VALID,97.8618,VALID,0,VALID,19.2334,VALID,232,VALID,1.86523,
2011-09-27, 02:50:04,VALID,917.766,VALID,0,VALID,97.8084,VALID,0,VALID,19.4298,VALID,264,VALID,4.12422,
2011-09-27, 02:51:04,VALID,917.742,VALID,0,VALID,97.7169,VALID,0,VALID,19.7028,VALID,237,VALID,1.21016,
2011-09-27, 02:52:04,VALID,917.752,VALID,0,VALID,97.6483,VALID,0.107441,VALID,19.7208,VALID,227,VALID,2.45469,
2011-09-27, 02:53:04,VALID,917.704,VALID,0,VALID,97.5873,VALID,0,VALID,19.8588,VALID,238,VALID,1.56875,
2011-09-27, 02:54:04,VALID,917.723,VALID,0,VALID,97.534,VALID,0,VALID,19.8378,VALID,257,VALID,2.23281,
2011-09-27, 02:55:04,VALID,917.659,VALID,0,VALID,97.5035,VALID,0.107441,VALID,19.7418,VALID,257,VALID,1.39492,
2011-09-27, 02:56:04,VALID,917.647,VALID,0,VALID,97.473,VALID,0,VALID,19.6638,VALID,311,VALID,2.07383,
2011-09-27, 02:57:04,VALID,917.597,VALID,0,VALID,97.4044,VALID,0,VALID,19.6638,VALID,266,VALID,3.13828,
2011-09-27, 02:58:04,VALID,917.648,VALID,0,VALID,97.3358,VALID,0,VALID,19.8783,VALID,237,VALID,1.91094,
2011-09-27, 02:59:04,VALID,917.64,VALID,0,VALID,97.2443,VALID,0,VALID,19.8393,VALID,220,VALID,1.45625,
2011-09-27, 03:00:04,VALID,917.582,VALID,0,VALID,97.1376,VALID,0,VALID,19.7823,VALID,239,VALID,0.773438,
2011-09-27, 03:01:04,VALID,917.62,VALID,0,VALID,96.9165,VALID,0,VALID,19.7223,VALID,253,VALID,2.32031,
2011-09-27, 03:02:04,VALID,917.617,VALID,0,VALID,96.825,VALID,0,VALID,19.6638,VALID,254,VALID,2.08711,
2011-09-27, 03:03:04,VALID,917.6,VALID,0,VALID,96.8403,VALID,0,VALID,19.6443,VALID,255,VALID,1.45313,
2011-09-27, 03:04:04,VALID,917.606,VALID,0,VALID,96.9089,VALID,0,VALID,19.5663,VALID,254,VALID,1.20156,
2011-09-27, 03:05:04,VALID,917.588,VALID,0,VALID,96.9622,VALID,0,VALID,19.4883,VALID,287,VALID,1.2293,
2011-09-27, 03:06:04,VALID,917.24,VALID,0,VALID,97.0308,VALID,0,VALID,19.4283,VALID,40,VALID,2.16641,
2011-09-27, 03:07:04,VALID,917.496,VALID,0,VALID,97.0766,VALID,0,VALID,19.4103,VALID,250,VALID,1.76875,
2011-09-27, 03:08:04,VALID,917.44,VALID,0,VALID,97.0461,VALID,0,VALID,19.4298,VALID,278,VALID,0.922656,
2011-09-27, 03:09:04,VALID,917.435,VALID,0,VALID,97.0156,VALID,0,VALID,19.4478,VALID,302,VALID,0.884766,
2011-09-27, 03:10:04,VALID,917.481,VALID,0,VALID,97.0156,VALID,0,VALID,19.4493,VALID,298,VALID,0.703906,
2011-09-27, 03:11:04,VALID,917.502,VALID,0,VALID,96.9622,VALID,0,VALID,19.4298,VALID,242,VALID,1.04922,
2011-09-27, 03:12:04,VALID,917.523,VALID,0,VALID,96.8784,VALID,0,VALID,19.5078,VALID,264,VALID,0.519141,
2011-09-27, 03:13:04,VALID,917.512,VALID,0,VALID,96.8098,VALID,0,VALID,19.5468,VALID,266,VALID,0.646875,
2011-09-27, 03:14:04,VALID,917.522,VALID,0,VALID,96.764,VALID,0,VALID,19.5468,VALID,339,VALID,0.528516,
2011-09-27, 03:15:04,VALID,917.502,VALID,0,VALID,96.7411,VALID,0,VALID,19.5078,VALID,28,VALID,1.37031,
2011-09-27, 03:16:04,VALID,917.504,VALID,0,VALID,96.6954,VALID,0,VALID,19.4478,VALID,28,VALID,1.41133,
2011-09-27, 03:17:04,VALID,917.546,VALID,0,VALID,96.7411,VALID,0,VALID,19.4298,VALID,28,VALID,1.01523,
2011-09-27, 03:18:04,VALID,917.546,VALID,0,VALID,96.7716,VALID,0,VALID,19.3893,VALID,28,VALID,0.358203,
2011-09-27, 03:19:04,VALID,917.518,VALID,0,VALID,96.825,VALID,0,VALID,19.4118,VALID,28,VALID,1.12031,
2011-09-27, 03:20:04,VALID,917.521,VALID,0,VALID,96.8555,VALID,0,VALID,19.3713,VALID,28,VALID,0.961328,
2011-09-27, 03:21:04,VALID,917.507,VALID,0,VALID,96.9089,VALID,0,VALID,19.3518,VALID,24,VALID,1.03125,
2011-09-27, 03:22:04,VALID,917.442,VALID,0,VALID,97.008,VALID,0,VALID,19.3323,VALID,11,VALID,1.17227,
2011-09-27, 03:23:04,VALID,917.486,VALID,0,VALID,97.0613,VALID,0,VALID,19.3323,VALID,15,VALID,1.51719,
2011-09-27, 03:24:04,VALID,917.466,VALID,0,VALID,97.0613,VALID,0,VALID,19.3323,VALID,335,VALID,0.0503906,
2011-09-27, 03:25:04,VALID,917.477,VALID,0,VALID,97.0994,VALID,0,VALID,19.3323,VALID,335,VALID,0,
2011-09-27, 03:26:04,VALID,917.485,VALID,0,VALID,97.1071,VALID,0,VALID,19.3128,VALID,335,VALID,0.00117188,
2011-09-27, 03:27:04,VALID,917.473,VALID,0,VALID,97.1299,VALID,0,VALID,19.3323,VALID,335,VALID,0.0121094,
2011-09-27, 03:28:04,VALID,917.481,VALID,0,VALID,97.1528,VALID,0,VALID,19.3113,VALID,335,VALID,0.357031,
2011-09-27, 03:29:04,VALID,917.532,VALID,0,VALID,97.1757,VALID,0,VALID,19.3323,VALID,335,VALID,0.794922,
2011-09-27, 03:30:04,VALID,917.434,VALID,0,VALID,97.1986,VALID,0,VALID,19.3323,VALID,43,VALID,1.30039,
2011-09-27, 03:31:04,VALID,917.487,VALID,0,VALID,97.1986,VALID,0,VALID,19.3323,VALID,10,VALID,0.381641,
2011-09-27, 03:32:04,VALID,917.462,VALID,0,VALID,97.1833,VALID,0,VALID,19.3128,VALID,10,VALID,0.432031,
2011-09-27, 03:33:04,VALID,917.422,VALID,0,VALID,97.2138,VALID,0,VALID,19.3128,VALID,10,VALID,0.616016,
2011-09-27, 03:34:04,VALID,917.434,VALID,0,VALID,97.1986,VALID,0,VALID,19.3338,VALID,353,VALID,0.883594,
2011-09-27, 03:35:04,VALID,917.459,VALID,0,VALID,97.229,VALID,0,VALID,19.2933,VALID,353,VALID,0.0265625,
2011-09-27, 03:36:04,VALID,917.426,VALID,0,VALID,97.2443,VALID,0,VALID,19.2933,VALID,353,VALID,0.392188,
2011-09-27, 03:37:04,VALID,917.375,VALID,0,VALID,97.229,VALID,0,VALID,19.2933,VALID,353,VALID,0,
2011-09-27, 03:38:04,VALID,917.439,VALID,0,VALID,97.2443,VALID,0,VALID,19.3128,VALID,353,VALID,0.215234,
2011-09-27, 03:39:04,VALID,917.439,VALID,0,VALID,97.2595,VALID,0,VALID,19.2933,VALID,353,VALID,0.495703,
2011-09-27, 03:40:04,VALID,917.398,VALID,0,VALID,97.2748,VALID,0,VALID,19.2933,VALID,264,VALID,0.942187,
2011-09-27, 03:41:04,VALID,917.408,VALID,0,VALID,97.2824,VALID,0,VALID,19.2933,VALID,244,VALID,0.104687,
2011-09-27, 03:42:04,VALID,917.41,VALID,0,VALID,97.3205,VALID,0,VALID,19.2933,VALID,244,VALID,0.379687,
2011-09-27, 03:43:04,VALID,917.422,VALID,0,VALID,97.3129,VALID,0,VALID,19.2738,VALID,244,VALID,0.147656,
2011-09-27, 03:44:04,VALID,917.419,VALID,0,VALID,97.3358,VALID,0,VALID,19.3323,VALID,244,VALID,0.368359,
2011-09-27, 03:45:04,VALID,917.376,VALID,0,VALID,97.3358,VALID,0,VALID,19.2918,VALID,244,VALID,0.0226563,